FLOCK 3K-12 (43903 NORAD) Tracking and Keplerian Element Data

This shows tracking and keplerian element data for the satellite.

Feedback or suggestion? Click here.




ElementValue
Catalog43903
NameFLOCK 3K-12
Epoch Orbit458
Epoch Day26.16011128
Epoch Year2019
RAAN295.2499
Inclination97.2987
Eccentricity0.0023726
Argument of Perigee135.6988
Mean Anonmoly224.6154
Mean Motion15.23757634
Decay Rate4.251E-05
L11 43903U 18111AD 19026.16011128 .00004251 00000-0 17835-3 0 9998
L22 43903 97.2987 295.2499 0023726 135.6988 224.6154 15.23757634 4587

Live tracking and technical data element details for FLOCK 3K-12 (NORAD 43903). FLOCK 3K-12 can be tracked NOW for your location showing map with azimuth and elevation plus other details from your city location.

Track the satellite on the map from your city or location and see movement details for azimuth, elevation, latitude, longitude, range, height, and movement on the map or in text.







IsCatalogInMostPopularTable: catalog: 43903, numindb: 80
Update: records affected: 1



GetName: 43903 FLOCK 3K-12

Hit Count: updated at: Thu, 23 May 2019 15:02:02 GMT